Weather observations for the past three days for
Kaneohe, Marine Corps Air Station
Imperial (Metric)
Date Time (hst) Wind (mph) Vis. (mi.) Weather Sky Cond. Temperature (ºF) Relative Humidity Wind Chill (°F) Heat Index (°F) Pressure Precipitation (in)
Air Dwpt 6 hour altimeter (in) sea level (mb) 1 hr 3 hr 6 hr
Max. Min.
20 13:57 E 13 7.00 Partly Cloudy SCT028 84 71.1 87.1 82 65% 89 30.01 1015.7 0.01
20 12:57 NE 14 7.00 Mostly Cloudy SCT028 BKN047 86 71.1 61% 92 30.03 1016.2
20 11:57 E 9 G 18 7.00 Light Rain SCT028 82 72 72% 87 30.04 1016.6 0.01
20 10:57 E 12 7.00 Partly Cloudy SCT028 87.1 71.1 59% 93 30.04 1016.8
20 09:57 NE 12 7.00 Partly Cloudy SCT028 86 70 59% 91 30.05 1016.9
20 08:57 E 9 7.00 Partly Cloudy SCT028 84 69.1 61% 88 30.05 1017.1
20 07:57 E 10 7.00 Mostly Cloudy BKN028 82.9 68 82.9 79 61% 86 30.05 1017.1
20 07:53 E 10 7.00 Mostly Cloudy BKN024 BKN048 82.4 69.8 66% 86 30.05 0.0
20 07:04 NE 8 7.00 A Few Clouds FEW050 82 69.1 65% 85 30.04 0.0
20 05:57 E 7 7.00 Mostly Cloudy BKN027 80.1 68 67% 83 30.03 1016.2
20 04:57 E 7 10.00 Partly Cloudy SCT024 SCT034 SCT050 80.1 69.1 69% 83 30.01 1015.8
20 04:29 E 9 10.00 Light Rain SCT021 SCT032 OVC048 80.1 69.1 69% 83 30.01 0.0
20 04:19 E 9 10.00 Light Rain SCT021 BKN027 BKN034 80.1 69.1 69% 83 30.01 0.0
20 03:57 Calm 10.00 Partly Cloudy SCT023 80.1 68 67% 83 30.01 1015.8
20 02:57 E 8 10.00 Fair CLR 80.1 66.9 64% 82 30.02 1015.9
20 01:57 E 9 10.00 A Few Clouds FEW023 FEW037 80.1 68 81 80.1 67% 83 30.03 1016.2
20 00:57 NE 9 10.00 A Few Clouds FEW023 80.1 68 67% 83 30.05 1017.0
19 23:57 NE 9 7.00 A Few Clouds FEW022 80.1 68 67% 83 30.06 1017.5
19 22:57 E 9 7.00 A Few Clouds FEW025 81 68 65% 84 30.07 1017.6
19 21:57 NE 10 7.00 A Few Clouds FEW022 81 69.1 67% 84 30.06 1017.5
19 20:57 NE 8 7.00 A Few Clouds FEW025 81 68 65% 84 30.06 1017.5
19 19:57 NE 9 7.00 Mostly Cloudy SCT025 BKN055 81 68 87.1 81 65% 84 30.05 1016.9
19 18:57 NE 9 7.00 Partly Cloudy FEW022 SCT027 SCT055 82 69.1 65% 85 30.03 1016.5
19 17:57 NE 9 7.00 Partly Cloudy FEW024 SCT030 84 68 59% 87 30.02 1016.0
19 16:57 NE 10 7.00 A Few Clouds FEW021 86 68 55% 89 30.01 1015.7
19 15:57 NE 10 7.00 Partly Cloudy SCT028 87.1 68 53% 91 30.01 1015.6
19 14:57 E 12 7.00 Mostly Cloudy FEW024 SCT055 BKN065 86 69.1 57% 90 30.02 1016.1
19 14:04 NE 9 7.00 Mostly Cloudy FEW028 BKN065 87.1 70 57% 92 30.03 0.0
19 13:57 NE 9 7.00 Mostly Cloudy BKN028 BKN050 86 70 87.1 80.1 59% 91 30.03 1016.4 0.04
19 12:57 NE 7 7.00 Mostly Cloudy BKN028 82 71.1 69% 86 30.04 1016.8 0.04
19 12:53 NE 7 10.00 Mostly Cloudy BKN035 82.4 71.6 70% 87 30.04 0.0 0.04
19 11:57 E 10 7.00 Overcast BKN025 BKN030 OVC060 86 68 55% 89 30.05 1016.9
19 11:04 E 12 G 18 7.00 Mostly Cloudy BKN028 84.9 69.1 59% 89 30.05 0.0
19 10:57 E 10 7.00 Partly Cloudy SCT028 84.9 69.1 59% 89 30.05 1017.1
19 10:04 NE 13 7.00 Mostly Cloudy FEW022 BKN028 84 69.1 61% 88 30.05 0.0
19 09:57 E 10 7.00 Mostly Cloudy FEW025 BKN035 82.9 69.1 63% 87 30.05 1017.1
19 09:04 NE 9 7.00 Mostly Cloudy FEW025 BKN035 82.9 69.1 63% 87 30.05 0.0
19 08:57 NE 12 7.00 Mostly Cloudy BKN025 81 70 69% 84 30.05 1017.2
19 07:57 E 10 7.00 Mostly Cloudy BKN027 82 68 82 78.1 63% 85 30.05 1017.0 0.03
19 06:57 E 10 7.00 A Few Clouds FEW065 80.1 66.9 64% 82 30.03 1016.3 0.03
19 06:18 E 7 7.00 Light Rain BKN025 78.1 69.1 74% 80 30.02 0.0 0.03
19 05:57 NE 8 7.00 Overcast SCT026 SCT030 OVC055 80.1 66.9 64% 82 30.01 1015.8
19 05:49 NE 8 7.00 Mostly Cloudy BKN026 BKN055 80.1 66.9 64% 82 30.01 0.0
19 04:57 E 6 7.00 Mostly Cloudy FEW024 SCT030 BKN047 79 66.9 67% 81 30.01 1015.8
19 03:57 E 7 7.00 Partly Cloudy FEW028 SCT047 SCT060 79 66 65% 81 30.02 1016.0
19 02:57 E 5 10.00 Fair CLR 79 66 65% 81 30.02 1016.0
19 01:57 E 9 10.00 A Few Clouds FEW026 79 66 81 79 65% 81 30.02 1016.0
19 00:57 E 8 10.00 Fair CLR 80.1 64.9 60% 82 30.04 1016.6
18 23:57 E 7 7.00 A Few Clouds FEW025 80.1 66 62% 82 30.05 1017.0
18 22:57 E 9 G 17 7.00 A Few Clouds FEW027 80.1 66 62% 82 30.06 1017.3
18 21:57 E 12 7.00 A Few Clouds FEW026 80.1 66 62% 82 30.06 1017.4
18 20:57 E 9 7.00 A Few Clouds FEW025 80.1 66.9 64% 82 30.05 1017.1
18 19:57 NE 10 7.00 A Few Clouds FEW026 81 66 88 81 61% 83 30.04 1016.7
18 18:57 NE 9 7.00 Fair CLR 81 66.9 62% 83 30.03 1016.2
18 17:57 NE 12 7.00 Partly Cloudy SCT028 82.9 66 57% 85 30.02 1015.9
18 16:57 NE 13 7.00 A Few Clouds FEW027 84.9 66 53% 87 30.01 1015.8
18 15:57 NE 13 7.00 Partly Cloudy SCT027 86 66 51% 88 30.02 1015.9
18 14:57 E 13 7.00 A Few Clouds FEW028 87.1 66 50% 89 30.02 1016.0
18 13:57 NE 13 7.00 A Few Clouds FEW030 87.1 66 88 82.9 50% 89 30.03 1016.2
18 12:57 NE 13 7.00 A Few Clouds FEW030 87.1 66 50% 89 30.04 1016.6
18 11:57 E 12 7.00 A Few Clouds FEW029 87.1 66 50% 89 30.05 1017.1
18 10:57 NE 13 7.00 A Few Clouds FEW028 86 64.9 49% 88 30.06 1017.4
18 09:57 E 9 7.00 A Few Clouds FEW028 86 64.9 49% 88 30.06 1017.4
18 08:57 NE 13 7.00 Partly Cloudy SCT030 84.9 66 53% 87 30.06 1017.2
18 07:57 E 12 7.00 A Few Clouds FEW025 82.9 66 82.9 77 57% 85 30.05 1017.0
18 06:57 E 6 7.00 A Few Clouds FEW028 81 66 61% 83 30.04 1016.7
18 05:57 E 9 7.00 A Few Clouds FEW028 FEW040 79 64.9 62% 81 30.02 1016.0
18 04:57 E 8 G 17 7.00 Overcast SCT027 BKN034 OVC055 79 66 65% 81 30.01 1015.6
18 03:57 NE 16 7.00 Overcast OVC040 78.1 66.9 69% 80 30 1015.5
18 02:57 E 6 10.00 Partly Cloudy FEW040 SCT050 79 64.9 62% 81 30 1015.3
18 01:57 E 8 G 20 10.00 Overcast BKN035 OVC046 78.1 66 81 78.1 67% 80 30.01 1015.6
18 01:24 E 9 10.00 Overcast SCT024 SCT032 OVC048 80.1 66.9 64% 82 30.01 0.0
18 00:57 E 8 G 20 10.00 Light Rain BKN024 BKN030 BKN048 80.1 66.9 64% 82 30.02 1016.1
17 23:57 E 9 7.00 Mostly Cloudy FEW024 SCT033 BKN048 80.1 66.9 64% 82 30.04 1016.6
17 22:57 NE 8 7.00 Mostly Cloudy BKN040 80.1 66.9 64% 82 30.05 1017.1
17 21:57 E 9 7.00 Mostly Cloudy BKN047 81 66 61% 83 30.05 1017.2
17 20:57 NE 13 7.00 Partly Cloudy FEW025 SCT041 81 66.9 62% 83 30.04 1016.6
17 19:57 NE 12 7.00 Partly Cloudy SCT026 80.6 66.2 62% 83 30.03 1016.3
17 18:57 NE 12 7.00 Partly Cloudy SCT027 81 66 61% 83 30.02 1016.0
17 17:57 NE 13 7.00 A Few Clouds FEW026 FEW034 82 66 58% 84 30.01 1015.6
17 16:57 NE 14 7.00 A Few Clouds FEW028 84 64.9 53% 86 30 1015.4
17 15:57 NE 15 7.00 Partly Cloudy SCT029 SCT047 86 66 51% 88 30.01 1015.6
17 14:57 NE 13 7.00 Partly Cloudy SCT029 86 66 51% 88 30.02 1016.1
Date Time (hst) Wind (mph) Vis. (mi.) Weather Sky Cond. Air Dwpt Max. Min. Relative Humidity Wind Chill (°F) Heat Index (°F) altimeter (in) sea level (mb) 1 hr 3 hr 6 hr
6 hour
Temperature (ºF) Pressure Precipitation (in)